Theta_e
318 321 324 325 324 323 321 320 321 322 324 326 330 331 326 323 325 325 325 323 314 314 322 319 316 317 316 316 315 314 313 312 314 313 311 310 308 308 307 306 306 306 305 303 302 304 304 305 306 308 309 310 312 312 312 312 312 313 314 315 315 316 317 317 317 317 319 319 317 315 315 318 317 317 319 319 319 320 321 321 320 320 319 319 318 318
318 322 324 324 321 320 319 319 320 322 321 322 325 323 323 325 325 323 319 318 314 315 323 320 315 317 315 314 313 312 314 315 315 314 313 312 309 308 308 307 307 306 305 303 302 302 303 304 306 308 309 310 310 310 310 310 311 312 313 314 314 316 316 315 317 318 318 318 317 316 315 316 315 314 317 318 318 318 319 318 318 318 318 317 317 316
321 323 322 320 319 318 318 316 317 319 318 322 325 321 323 325 323 321 317 316 314 314 323 323 317 317 315 313 313 312 313 312 312 312 312 312 311 310 309 308 307 307 307 306 303 300 301 303 305 308 309 309 309 309 310 310 311 311 311 312 313 314 314 313 314 316 316 316 317 318 317 316 316 314 314 316 316 317 317 316 316 317 317 316 315 313
323 326 321 317 320 320 318 317 316 318 318 321 324 322 324 324 321 322 320 316 315 314 320 322 317 316 315 314 315 313 313 312 312 312 311 310 311 311 310 309 308 308 308 307 304 301 299 301 304 307 307 308 309 309 309 309 310 310 310 311 311 312 313 313 313 313 314 314 315 316 314 313 314 312 311 313 314 314 315 314 313 314 314 313 312 311
323 323 316 315 318 319 321 320 318 320 321 322 322 321 322 323 322 322 321 319 319 318 317 318 321 325 323 320 319 318 319 317 312 312 312 311 310 310 310 310 309 308 307 307 305 302 299 299 303 306 307 307 308 308 309 308 309 309 310 310 311 311 311 313 312 311 313 314 313 310 307 306 307 305 305 308 309 308 310 310 309 310 310 310 310 308
320 318 315 318 317 318 322 321 321 324 323 326 325 321 320 322 322 321 320 320 325 328 320 316 326 338 336 330 325 328 330 326 320 318 316 314 312 310 310 309 309 309 308 306 305 302 300 299 302 305 306 307 308 308 308 308 309 309 309 309 309 309 311 312 312 311 312 314 313 310 306 304 302 300 300 305 307 305 306 307 307 307 307 307 307 302
319 315 317 325 321 319 321 320 323 322 321 326 326 321 319 318 319 319 320 321 327 331 319 314 324 332 330 324 323 332 334 328 324 322 319 317 315 313 312 310 309 309 307 306 305 302 300 300 301 304 306 307 307 307 308 309 309 308 308 308 308 309 310 310 310 309 310 310 310 310 311 311 309 304 301 303 304 303 304 304 304 304 304 303 301 296
318 316 317 323 324 322 320 321 322 318 322 329 322 320 320 318 320 320 319 321 326 326 319 319 323 324 324 322 324 329 328 324 323 321 319 318 317 316 314 312 310 309 307 306 305 303 301 300 301 304 306 307 307 307 308 308 308 308 308 308 307 308 309 309 310 309 308 308 308 308 309 310 312 312 307 302 300 299 301 301 301 302 300 297 294 293
317 321 320 319 321 322 322 327 324 317 323 326 316 317 321 320 322 321 320 322 322 321 323 324 321 322 329 330 327 324 323 326 326 323 321 319 319 320 319 315 311 309 307 306 305 303 300 299 301 304 306 307 307 307 308 308 307 307 308 307 306 306 306 307 307 307 306 307 308 306 306 306 307 308 306 301 298 296 297 298 298 296 295 292 292 292
316 318 317 318 320 321 324 325 318 316 321 318 313 317 320 321 323 324 325 325 324 325 326 327 323 323 328 328 327 324 324 328 326 323 320 320 324 324 323 319 311 309 307 305 305 302 300 300 301 304 306 306 307 307 308 307 306 306 307 306 305 304 304 305 304 304 304 305 306 305 305 307 306 303 299 295 294 293 293 294 293 292 292 291 291 291
315 312 313 317 319 320 324 318 313 317 319 314 319 326 324 326 327 327 328 325 327 328 324 325 325 323 326 329 329 326 328 331 326 323 322 323 331 333 329 322 313 309 308 305 304 301 299 300 301 303 306 306 306 306 306 306 305 305 306 305 304 303 303 303 303 304 304 304 305 305 306 309 308 302 296 292 291 291 290 291 291 291 291 291 291 291
315 315 317 318 317 319 323 319 314 315 314 318 331 331 326 329 327 327 329 326 329 329 322 322 321 320 325 330 330 328 329 328 324 325 325 325 333 339 337 327 314 308 307 304 304 302 299 299 300 302 305 305 305 305 304 305 304 304 304 304 303 302 302 303 302 303 304 304 304 305 305 309 310 305 298 294 292 291 290 291 291 291 290 290 290 290
317 320 321 318 314 318 325 324 318 315 315 322 331 328 326 329 327 326 328 326 328 325 317 316 319 320 322 324 325 325 324 324 321 320 321 322 327 330 331 328 315 307 306 304 303 302 300 299 299 300 303 304 303 304 303 303 303 302 303 302 301 301 301 302 301 301 303 303 304 304 305 307 309 306 301 296 293 291 291 291 291 290 290 290 290 290
320 320 319 317 316 319 322 322 322 320 319 322 325 327 328 328 330 335 332 324 324 323 315 312 319 323 323 323 323 320 318 321 320 319 319 319 320 319 320 322 315 307 305 304 302 302 301 299 298 300 302 303 302 303 302 302 302 301 301 301 301 300 300 301 302 300 301 302 302 303 305 306 306 304 301 297 294 292 291 291 291 291 290 290 290 290
321 320 319 318 319 320 318 318 324 325 320 319 323 324 327 330 334 338 336 328 326 326 319 314 319 328 330 327 322 320 321 321 321 321 319 318 316 314 314 315 314 309 304 302 301 301 300 298 298 299 301 302 302 303 302 301 301 300 300 300 300 300 299 299 301 300 299 300 300 301 303 305 304 302 299 296 293 292 291 291 291 291 290 290 290 290
317 321 323 318 317 318 317 319 324 323 319 319 322 322 324 327 325 323 324 324 324 326 325 320 323 328 329 324 319 320 325 326 324 320 318 319 317 313 313 312 310 309 304 301 301 301 299 298 298 299 300 301 302 302 302 301 300 300 300 300 300 300 300 299 299 299 298 299 300 300 301 303 301 299 296 293 292 291 291 291 291 291 291 290 290 289
319 322 320 314 316 316 317 320 321 320 320 319 319 322 321 319 319 320 320 316 316 322 326 324 326 328 326 324 321 321 323 324 323 320 321 324 319 315 318 314 309 308 306 302 301 300 299 297 298 298 299 300 301 302 302 301 300 300 300 300 299 299 299 298 298 299 299 299 299 299 300 301 299 297 294 292 292 291 291 291 291 291 290 290 289 289
321 324 319 315 318 314 312 319 320 316 318 321 323 323 318 316 321 327 325 323 323 325 327 325 325 327 326 324 323 320 321 322 321 320 322 322 318 319 321 316 311 310 307 302 300 300 298 297 297 298 299 300 301 301 302 301 301 300 300 300 299 298 298 298 297 298 299 299 298 298 298 298 298 296 294 292 291 291 291 291 291 290 290 290 289 289
319 320 320 315 317 315 311 318 321 315 313 320 324 321 320 325 328 325 325 331 330 328 330 328 323 322 322 324 324 321 327 333 325 320 319 319 320 322 319 316 315 312 306 301 300 300 298 297 296 297 298 299 300 301 301 301 301 300 299 299 299 299 299 300 298 297 298 299 299 299 298 297 296 294 292 291 291 291 291 291 291 290 290 289 288 288
319 317 321 314 312 316 315 318 322 320 314 315 317 316 319 325 326 324 324 327 329 329 330 330 326 323 323 325 326 322 326 332 331 326 324 326 327 322 317 318 320 316 308 302 300 300 298 297 296 297 298 298 299 300 301 300 300 299 299 298 298 298 298 299 298 298 297 297 297 297 297 296 294 292 291 290 291 291 291 291 291 290 290 289 288 288
319 316 320 316 312 316 320 319 320 320 318 317 319 319 319 320 322 324 323 322 328 331 330 330 327 324 326 325 325 325 323 324 331 331 329 336 332 321 318 322 322 317 309 302 299 300 298 296 296 297 298 298 299 299 300 300 299 299 298 298 297 297 296 296 296 298 297 296 295 295 295 294 293 291 290 290 290 291 291 291 291 290 289 288 288 288
319 318 322 321 317 319 322 318 316 318 319 318 320 320 319 319 320 323 322 320 324 326 327 328 325 323 329 324 322 326 325 322 327 327 329 340 332 321 321 323 319 317 311 304 300 300 297 295 295 296 297 297 298 298 298 298 298 298 297 297 297 296 296 296 295 296 296 295 294 294 294 294 292 291 289 289 290 290 290 290 290 290 289 288 288 287
321 324 324 324 322 320 318 314 311 316 318 317 318 319 318 318 320 323 325 323 323 323 321 323 325 324 325 321 319 324 325 322 321 320 330 340 329 321 321 317 313 313 310 303 300 299 296 294 295 295 296 296 296 297 297 297 297 297 297 296 296 296 296 296 296 295 295 294 293 293 293 292 291 290 289 289 289 289 289 290 290 289 288 288 287 287
320 323 321 322 324 323 319 315 312 312 315 317 318 319 319 318 320 325 327 324 325 325 322 322 325 323 318 319 319 320 319 320 319 317 325 329 325 325 325 317 312 312 307 302 300 298 295 293 294 294 294 295 295 296 296 296 296 296 296 296 296 296 296 296 296 294 293 292 292 292 292 291 290 289 289 289 288 288 288 289 289 289 288 288 287 287
318 322 322 321 323 324 321 320 317 314 314 318 320 320 319 319 320 322 323 322 324 326 324 324 326 322 320 323 322 318 317 321 322 318 318 321 326 331 326 317 313 310 306 303 300 298 296 294 294 293 294 294 295 295 295 295 295 295 295 295 295 296 296 296 295 293 292 291 291 291 290 290 289 288 288 288 288 288 288 288 289 288 288 287 287 287
318 322 320 319 321 322 321 322 322 319 316 317 322 321 318 319 320 320 321 322 323 324 323 323 324 321 322 324 322 318 319 321 323 322 319 318 321 324 320 316 314 311 308 305 301 299 297 296 294 293 293 294 294 295 295 294 294 294 294 294 295 296 296 295 294 292 291 291 290 290 290 289 288 288 288 288 287 287 288 288 289 288 287 287 287 287
323 323 319 319 321 320 320 322 322 322 319 319 321 320 318 318 318 319 321 322 323 324 323 322 321 322 322 323 324 322 322 323 324 324 323 319 318 320 319 315 313 311 308 304 300 298 297 295 295 293 293 294 294 294 295 294 294 294 294 293 294 295 295 294 292 291 291 290 290 289 289 288 288 288 288 287 288 288 288 288 288 288 287 287 287 287
326 324 319 320 320 319 320 322 321 322 323 321 320 319 318 318 317 319 321 321 321 324 324 321 321 322 321 321 324 325 324 323 323 324 326 323 322 325 321 315 314 312 305 301 300 299 297 296 295 293 292 293 294 294 294 294 294 293 294 293 293 293 293 293 292 291 290 289 289 289 289 288 288 288 288 288 288 288 288 288 288 287 287 287 286 287
325 323 321 321 321 319 319 320 322 323 323 322 320 319 318 317 317 318 320 320 321 322 323 321 322 323 321 319 321 323 322 322 322 322 322 320 322 326 323 320 323 317 308 305 303 299 297 297 295 293 292 292 293 293 293 294 294 293 293 293 293 293 293 292 291 291 290 289 289 289 289 288 288 288 288 288 288 288 288 287 287 287 286 286 286 286
322 322 322 322 321 321 320 320 323 323 321 321 320 319 318 317 317 318 318 319 319 320 321 321 322 322 320 318 320 320 320 321 320 317 317 319 323 327 324 323 326 322 315 312 307 300 297 297 296 294 292 292 292 292 293 293 293 293 292 292 292 292 292 292 291 290 290 289 289 289 289 289 289 288 288 288 288 288 287 287 287 287 286 286 286 285
318 321 324 322 321 322 320 320 322 321 321 321 320 319 318 317 317 317 318 318 319 319 320 320 322 321 318 319 321 322 322 321 319 318 319 320 321 322 321 321 323 323 319 313 306 300 298 297 296 294 292 292 292 292 293 293 293 293 292 292 292 292 291 291 291 290 290 290 290 290 289 289 289 289 288 288 288 287 287 287 287 286 286 286 285 285
318 321 324 322 321 323 322 321 321 319 318 319 320 320 319 318 318 317 317 318 318 319 320 320 320 320 319 320 322 323 324 323 321 321 320 320 319 319 319 319 319 321 320 315 308 302 299 297 296 295 293 292 292 292 292 292 292 292 292 292 291 291 291 291 291 291 290 290 290 290 289 289 289 289 288 288 287 287 287 286 286 286 286 286 286 285
318 320 321 320 322 323 322 322 321 319 320 321 320 319 318 317 317 317 317 317 317 318 320 320 320 318 318 320 320 322 325 325 322 321 320 319 319 317 316 315 316 316 316 315 311 305 302 298 296 294 293 292 292 292 292 292 292 292 292 292 291 291 291 291 291 291 290 290 290 289 289 289 289 288 288 287 287 287 286 286 286 286 286 286 286 285
319 318 318 318 321 323 322 321 321 322 323 323 321 320 319 317 317 318 317 317 316 316 317 318 319 317 318 319 318 320 322 322 319 318 318 318 319 319 316 314 313 314 313 312 310 307 303 299 295 293 294 293 293 292 292 292 292 292 292 292 291 291 290 290 290 290 290 290 289 289 289 289 288 288 287 287 287 287 286 286 285 286 286 286 285 285
318 318 317 318 320 321 321 321 323 325 324 324 325 325 321 318 317 317 317 316 316 316 316 317 317 317 317 317 317 318 318 318 318 318 318 317 317 317 318 317 314 313 312 311 310 309 304 297 294 293 293 293 293 293 292 292 292 292 292 291 291 290 290 290 289 289 289 289 289 289 288 288 288 288 287 287 287 286 286 285 285 285 285 285 285 285
318 317 318 319 319 321 322 322 324 326 322 322 326 325 320 319 320 319 319 318 316 316 316 316 316 316 316 316 316 318 319 318 317 316 314 313 314 316 317 317 314 312 312 312 310 308 302 296 295 294 294 293 293 292 292 292 291 292 291 291 291 290 290 289 289 289 289 289 289 289 288 288 288 288 287 287 286 286 286 285 285 285 285 285 285 285
319 318 317 319 320 320 322 323 322 324 323 323 325 322 318 319 321 321 321 320 318 316 316 316 316 316 316 316 316 316 316 315 315 315 313 313 316 316 312 312 313 313 311 307 304 301 299 297 296 296 294 294 293 292 292 291 291 291 290 290 290 289 289 289 289 289 289 288 288 288 288 288 288 287 287 287 286 286 286 286 286 285 285 285 285 285
317 318 318 319 320 319 321 323 323 324 324 323 322 321 319 319 320 320 321 321 320 318 316 316 316 316 316 316 317 315 314 315 317 316 315 316 316 313 311 310 310 308 303 299 298 298 298 297 296 296 295 294 293 292 292 291 291 290 290 289 289 289 288 288 288 289 289 289 289 288 288 288 288 287 287 286 286 286 286 286 286 286 286 286 286 286
316 317 316 318 319 319 321 323 323 324 323 322 324 323 321 321 321 320 322 322 320 319 319 316 316 317 316 315 316 316 315 316 317 315 317 320 316 312 311 310 306 300 296 296 298 297 297 297 296 296 295 294 292 292 292 291 291 290 289 289 288 288 288 288 288 289 289 289 289 288 288 288 287 287 287 287 287 287 287 287 287 287 287 286 286 285
315 316 316 317 319 320 320 321 323 322 322 325 326 320 316 316 319 322 323 321 320 322 322 319 316 317 316 315 315 316 316 316 317 316 317 317 311 305 305 305 304 301 297 296 297 298 297 297 296 295 294 293 293 292 292 291 291 290 289 289 288 288 288 288 289 289 289 289 289 288 288 288 288 288 288 288 288 288 288 287 287 286 286 285 285 284
315 316 316 317 319 319 320 322 321 320 324 326 321 313 312 316 319 322 323 321 323 327 324 320 320 318 316 316 315 314 314 315 315 310 306 306 305 303 298 294 294 295 295 295 297 297 296 296 295 294 294 294 293 293 292 291 290 289 289 289 288 288 288 289 289 289 289 289 289 289 288 288 288 288 288 288 288 288 287 287 286 286 285 284 284 283
315 316 316 317 318 318 319 321 320 321 324 322 313 307 312 318 320 320 320 320 326 329 321 317 319 318 316 316 315 313 313 313 311 307 302 301 303 302 297 292 291 292 293 293 295 296 295 294 294 294 294 293 293 293 292 291 290 289 289 289 288 289 289 289 289 289 289 289 288 288 288 288 288 288 288 288 287 287 287 286 286 285 284 284 283 282
316 317 317 317 317 318 319 320 321 321 318 313 310 309 312 319 323 324 321 317 315 319 317 315 316 316 315 316 314 311 310 308 305 303 301 299 298 298 295 294 294 293 291 291 292 294 294 293 292 292 292 293 293 293 292 291 290 290 289 289 289 289 289 289 289 289 288 288 288 288 288 288 288 288 288 287 287 287 286 285 285 284 284 283 283 282
316 317 317 317 317 318 319 318 320 321 315 311 315 316 313 316 322 324 322 317 311 310 313 315 315 312 312 316 313 307 306 306 301 299 299 297 296 295 294 293 292 290 289 289 291 293 293 291 289 290 291 291 292 292 292 292 291 289 289 289 289 289 289 289 289 289 288 288 288 288 288 288 288 287 287 287 286 286 285 285 284 284 283 283 283 282
317 316 317 318 317 317 318 318 318 318 312 309 315 318 314 315 316 313 313 317 316 311 309 315 319 311 306 309 308 304 304 303 299 297 298 296 294 294 293 292 290 289 288 288 289 291 291 290 289 289 289 290 291 292 292 292 292 290 289 289 289 289 289 289 288 288 288 288 288 288 288 288 287 287 287 287 286 286 285 285 284 283 283 283 282 282
316 315 314 317 317 316 317 316 314 312 309 308 311 312 311 312 312 308 309 314 315 311 306 311 318 312 302 302 304 303 301 299 296 296 295 294 294 293 292 291 288 286 286 287 287 289 290 289 288 288 288 288 290 291 291 292 293 292 291 290 290 290 289 289 289 288 288 288 288 288 287 287 287 286 286 286 286 286 285 285 285 284 283 283 282 282
313 312 312 315 318 318 319 319 315 312 310 309 309 307 305 305 305 305 308 312 311 309 306 307 309 304 298 299 303 303 298 295 296 296 294 293 293 292 293 294 290 286 285 286 287 289 291 290 289 288 288 288 288 290 291 292 292 293 292 292 291 290 290 289 289 289 288 288 288 287 287 287 287 286 286 286 285 285 285 285 285 284 283 283 282 282
313 311 311 314 315 316 318 318 313 309 307 306 307 306 305 304 303 301 302 304 305 303 302 301 300 297 296 297 300 300 296 294 295 296 293 292 293 292 293 294 289 285 285 287 288 291 292 291 288 288 288 288 288 290 292 292 292 292 292 292 291 290 290 289 289 289 288 288 288 287 287 287 287 286 286 285 285 285 285 284 284 284 284 284 284 283
311 310 311 313 313 313 315 314 309 306 306 306 305 304 304 304 303 301 298 299 301 301 300 298 295 294 295 296 296 297 297 294 293 294 293 292 292 293 292 290 285 284 286 287 289 291 291 289 288 288 288 288 288 290 291 291 291 291 291 291 290 290 289 289 288 288 288 287 287 287 287 286 286 286 286 285 285 285 284 284 285 284 284 284 284 284
311 312 312 312 313 312 313 313 310 310 312 312 308 305 303 301 300 300 299 300 302 302 300 298 295 293 293 293 293 296 298 294 291 292 293 292 292 292 290 286 283 283 285 286 288 289 289 289 289 288 288 288 288 289 289 289 290 290 290 290 289 289 289 289 288 287 287 287 287 286 286 286 285 285 285 285 285 284 284 284 284 284 284 284 283 283
311 313 311 312 314 313 312 312 310 310 314 315 311 306 302 298 297 299 301 302 301 298 297 298 298 296 294 292 292 294 296 293 290 291 293 292 290 288 286 285 283 283 284 286 287 287 287 288 289 289 288 287 287 288 289 289 289 289 289 289 289 289 289 289 288 287 287 286 286 286 286 286 285 285 285 284 284 284 284 283 283 282 283 283 282 282
Wind_Speed
3 3 2 5 7 8 9 8 6 5 6 6 5 3 4 4 5 5 4 6 2 3 6 8 8 11 11 13 12 4 4 6 9 10 11 11 9 9 10 12 12 12 10 8 14 19 22 23 22 21 19 19 19 19 20 19 20 21 21 22 22 22 23 23 23 22 22 23 24 25 24 23 21 20 19 18 18 18 17 16 17 17 17 16 17 19
4 3 7 10 9 7 7 6 5 6 5 5 5 2 2 3 6 7 3 4 1 3 6 4 5 11 12 13 12 4 3 8 11 11 14 14 12 10 11 14 12 9 5 6 12 18 22 24 24 23 21 22 22 21 22 21 22 23 23 24 24 24 24 24 23 23 23 24 25 23 22 22 21 21 20 19 19 18 17 18 19 19 17 16 18 21
2 4 12 9 4 5 3 5 6 5 4 3 3 2 3 3 4 6 3 4 1 4 4 4 4 10 12 13 12 10 9 10 10 12 14 14 12 11 12 13 11 8 6 7 10 15 22 24 24 24 24 24 23 22 23 23 23 24 24 25 25 25 26 25 25 26 26 25 23 22 22 23 22 22 21 20 19 19 19 20 21 20 19 19 21 22
3 6 11 5 8 7 4 4 7 5 2 2 3 3 3 3 1 3 4 3 0 2 2 4 5 7 10 12 11 12 11 9 10 13 13 12 12 14 13 10 10 11 10 9 9 12 18 22 24 25 25 25 24 24 25 25 26 26 26 27 27 26 26 26 27 27 26 25 24 24 25 25 23 23 22 21 21 21 22 22 22 22 22 23 23 23
6 6 2 5 7 8 5 4 7 5 3 4 5 6 4 4 6 6 4 4 2 2 3 3 6 6 7 10 10 7 5 7 10 12 13 13 13 13 11 10 11 11 11 11 11 11 16 21 24 25 25 25 25 27 28 28 27 28 27 27 27 27 27 27 28 27 26 26 26 26 25 23 22 22 22 23 23 23 23 24 24 24 24 24 24 24
8 5 4 6 4 6 7 4 6 7 4 5 5 10 10 8 7 4 3 5 4 4 3 3 4 6 4 7 10 5 5 7 8 9 13 14 11 10 11 12 11 9 10 11 12 13 16 20 22 24 25 26 28 29 30 30 28 28 28 28 28 28 28 28 28 28 28 28 28 29 28 25 24 24 23 24 25 25 25 25 26 26 25 25 25 25
4 3 4 6 5 6 6 4 6 7 5 3 5 9 10 7 5 4 1 2 1 4 4 2 1 6 5 7 10 5 6 10 9 10 12 12 10 9 10 11 9 9 9 9 10 12 15 19 21 23 27 29 29 29 29 30 29 28 29 29 30 30 30 30 30 29 29 30 31 31 30 28 27 26 24 25 27 27 27 27 27 27 27 27 27 27
4 4 3 5 6 5 5 4 6 8 7 3 4 5 7 7 6 5 4 3 3 3 4 1 2 4 6 8 8 3 6 11 11 12 13 12 12 10 10 10 10 10 9 9 9 11 14 20 24 27 30 31 29 28 29 30 30 30 30 30 30 30 30 30 31 30 30 31 32 31 30 29 28 27 27 28 27 28 28 28 29 29 29 29 29 28
4 7 7 7 5 4 6 5 8 11 6 4 2 6 6 6 5 4 5 3 1 3 5 2 4 3 7 7 4 3 5 9 11 14 14 12 11 10 10 10 9 8 8 9 10 11 14 21 27 28 29 28 27 28 30 31 31 30 30 30 30 30 31 31 31 31 30 31 32 31 30 29 27 28 30 31 30 29 30 31 31 31 32 31 29 28
1 5 7 7 5 6 4 2 6 11 5 3 6 7 6 5 5 5 4 3 3 3 7 6 6 3 6 4 2 2 3 7 10 12 12 9 7 8 9 8 6 6 6 8 9 11 16 22 25 25 25 26 27 29 31 31 31 31 31 31 31 31 31 32 31 31 32 32 31 30 29 28 28 29 32 32 32 32 32 33 33 33 32 31 30 28
1 1 2 3 4 5 4 3 1 4 5 6 7 6 6 6 5 4 2 4 2 5 7 6 9 7 5 3 5 5 5 7 8 9 10 7 6 7 7 6 5 5 5 6 7 8 13 18 20 21 23 26 27 28 31 32 32 32 32 32 32 31 32 32 32 32 33 32 31 30 29 27 27 32 35 35 35 34 34 35 34 34 33 31 30 29
3 1 1 2 2 4 6 5 4 3 4 5 5 5 4 3 4 4 4 4 2 6 4 2 5 7 7 6 4 6 7 6 8 9 10 8 8 8 6 5 5 5 5 6 6 6 9 13 17 21 23 26 27 29 31 32 33 33 33 33 32 31 32 32 32 33 34 33 31 30 30 27 28 33 37 37 38 38 37 37 36 35 34 32 31 29
2 4 3 2 1 4 6 5 4 4 2 4 5 5 4 2 3 3 3 0 3 7 3 1 1 3 8 8 8 11 12 11 10 10 9 9 10 10 7 5 4 4 5 6 6 7 8 10 16 21 24 26 27 30 31 33 33 32 33 33 32 32 32 32 33 33 34 33 32 31 31 29 30 34 37 39 40 41 40 39 39 38 36 35 33 31
4 5 2 1 2 3 8 6 3 1 2 4 5 5 4 2 1 3 4 2 4 5 3 1 1 3 5 5 11 17 17 13 10 9 9 9 11 10 7 5 4 5 6 6 7 8 8 11 16 22 25 26 28 30 31 32 32 32 32 33 33 32 32 33 33 33 33 33 33 32 31 30 32 36 39 40 42 43 41 40 40 39 38 36 34 33
6 6 5 7 3 5 10 8 6 6 5 5 4 5 5 5 5 4 4 3 5 4 3 2 1 3 3 3 7 11 11 8 8 9 8 9 10 8 6 5 5 5 5 5 7 8 9 12 18 22 24 27 28 30 31 32 33 33 33 34 34 33 33 34 34 35 34 34 33 32 31 31 34 37 40 41 43 43 42 40 39 38 36 35 33 32
6 8 6 3 1 9 11 5 5 8 3 3 3 4 3 5 5 2 3 5 2 3 4 2 4 5 4 6 8 7 8 7 7 8 7 10 11 5 6 7 6 6 6 6 7 8 9 14 19 22 24 26 28 30 31 32 34 34 34 35 35 34 34 34 35 35 35 35 34 32 32 33 36 38 40 42 43 43 42 40 39 37 35 34 33 32
4 6 5 2 2 5 6 3 4 4 3 2 3 4 4 4 6 2 2 1 4 2 4 2 4 5 3 7 9 7 9 9 8 8 7 11 10 5 7 8 5 6 6 7 8 8 9 13 18 21 23 26 28 30 32 33 35 36 36 36 34 34 34 35 35 36 35 35 34 34 34 35 38 40 41 43 43 43 41 39 37 36 35 34 33 33
5 4 5 1 1 3 1 2 3 2 3 5 4 6 3 2 3 2 1 2 3 3 5 2 5 5 3 6 5 1 7 11 11 10 10 11 7 6 11 7 5 7 7 7 8 7 8 11 16 19 22 25 28 30 32 34 35 35 36 36 35 34 35 35 35 36 36 36 35 35 36 37 39 40 41 43 44 43 41 39 38 37 36 35 34 33
4 3 5 1 3 3 4 3 1 4 2 5 4 4 4 2 2 2 2 2 1 3 5 4 5 4 5 6 3 4 8 10 11 10 10 10 9 10 11 5 4 6 7 6 7 6 7 10 16 20 22 25 27 29 31 33 34 34 34 35 35 35 36 36 36 36 36 37 36 36 37 38 39 41 41 43 44 43 42 41 39 38 37 36 35 34
3 4 4 2 1 1 3 1 5 2 2 3 2 3 2 2 4 3 3 3 3 3 3 4 5 5 7 7 7 10 12 10 9 7 7 10 12 10 8 4 5 7 7 7 7 7 7 11 17 21 24 26 28 29 30 31 33 34 34 34 34 34 35 36 37 37 37 37 37 37 38 39 40 41 42 43 44 44 43 42 40 39 38 37 36 35
2 4 4 2 3 1 2 5 8 9 6 4 4 5 3 1 2 1 1 2 4 3 2 2 6 9 6 5 9 11 11 10 10 7 8 10 10 8 6 6 6 6 7 6 6 7 7 11 17 21 23 25 27 28 29 30 32 33 34 34 34 34 34 36 37 38 38 38 38 38 39 40 40 41 42 43 43 44 43 42 41 39 38 37 36 35
3 4 4 2 1 4 5 4 5 8 8 8 8 8 9 6 4 3 3 1 2 2 3 3 6 12 6 5 8 9 8 9 10 9 9 9 8 6 5 6 6 6 6 7 7 7 7 10 15 19 22 24 25 27 28 29 31 32 33 34 34 34 35 36 37 38 38 39 39 39 39 40 41 41 42 42 43 43 43 42 41 39 38 38 37 35
4 3 4 4 4 6 5 2 2 4 4 4 4 5 7 7 6 6 5 3 2 1 1 4 3 12 5 5 6 6 5 6 5 8 9 8 7 6 5 5 5 6 6 6 6 6 7 11 15 19 21 22 24 26 28 29 30 31 32 33 33 34 35 36 38 39 39 39 39 39 39 40 41 42 42 43 43 43 42 41 41 40 39 38 37 35
2 2 3 3 2 3 4 4 2 1 1 3 4 2 4 6 5 5 5 4 4 4 3 4 4 11 4 1 3 3 3 4 4 6 8 7 7 6 6 5 5 6 5 5 5 5 7 11 14 16 18 21 23 25 27 29 30 31 32 33 34 35 36 37 38 38 38 39 39 39 40 40 41 42 42 42 42 42 41 40 40 40 38 38 37 36
4 4 5 5 3 3 3 3 2 1 2 3 4 3 5 8 6 3 2 3 2 7 9 5 7 11 4 4 3 3 5 6 6 6 6 6 7 6 5 4 5 5 4 5 6 6 7 9 11 14 18 22 24 26 28 29 30 31 32 34 35 36 36 37 38 38 38 38 38 39 39 40 41 41 42 41 41 40 40 40 40 39 38 38 38 36
6 6 7 8 8 8 8 6 5 4 3 1 4 5 7 10 10 6 3 3 5 9 9 7 11 11 2 4 6 6 5 7 8 7 6 7 8 6 5 4 5 5 6 7 7 7 8 8 9 13 18 22 24 27 28 30 31 32 33 34 35 36 37 37 37 38 38 38 38 38 39 39 40 41 41 40 39 39 39 40 40 39 39 38 38 37
3 4 10 12 12 13 13 9 4 8 7 6 9 10 10 11 13 10 5 6 9 6 4 11 18 17 9 4 6 8 6 8 9 6 5 8 8 7 6 5 4 5 6 7 7 7 8 8 10 13 18 22 25 27 29 30 31 32 33 33 34 36 37 37 37 37 38 38 37 38 39 39 39 40 40 39 38 38 39 40 40 40 39 38 38 38
3 4 11 15 16 17 18 14 7 9 10 14 14 14 14 13 13 12 11 14 12 5 7 17 18 17 20 14 9 9 8 8 9 8 8 8 7 6 5 4 4 5 5 6 7 9 10 10 10 12 17 21 24 26 28 29 31 33 34 34 35 35 36 37 37 37 37 37 37 37 38 38 38 38 38 38 38 38 38 39 39 39 39 38 38 38
3 5 8 12 15 17 20 15 10 9 10 12 15 17 17 16 16 17 20 22 17 10 14 21 15 14 22 19 12 11 10 9 10 9 7 6 6 6 4 4 6 6 6 8 10 10 11 12 11 12 16 20 22 25 27 28 30 32 33 34 35 36 37 37 37 37 36 36 37 37 37 36 37 37 37 38 38 39 39 39 39 38 38 37 37 37
3 5 8 11 13 16 20 16 11 12 10 9 12 16 18 19 21 23 25 27 23 16 17 21 17 17 21 18 12 11 10 10 9 6 4 6 8 7 6 7 7 8 8 10 11 11 12 12 11 12 15 19 23 26 27 29 30 31 32 33 34 36 36 36 37 37 36 36 36 36 35 36 37 37 38 38 39 40 39 39 38 38 37 37 37 36
4 6 7 7 8 12 18 17 11 11 11 10 9 10 14 18 22 25 25 21 17 16 19 22 19 20 20 13 9 9 8 8 8 7 7 9 10 9 8 8 9 9 10 11 11 10 10 10 10 11 14 20 25 27 29 29 29 30 31 32 33 34 35 35 36 36 37 37 36 35 35 36 37 37 38 39 39 39 39 39 39 38 37 37 37 36
5 4 1 3 6 10 15 18 12 7 6 8 8 10 16 20 20 20 18 16 15 17 20 19 16 19 17 6 5 6 7 8 10 11 10 11 10 10 11 10 11 11 11 11 11 10 10 11 12 13 16 21 26 28 29 29 28 29 31 31 31 31 33 34 35 35 36 36 35 35 35 36 37 37 38 38 38 38 39 39 38 38 38 38 38 37
5 4 2 4 6 10 16 18 10 5 3 8 12 18 24 22 16 13 13 17 20 18 15 14 15 21 17 4 4 7 7 9 12 12 12 13 11 11 11 11 11 11 11 11 11 10 11 11 13 16 20 24 27 31 32 31 30 31 32 32 31 31 33 34 35 35 34 34 34 35 35 36 36 36 37 37 37 37 37 38 38 39 39 39 38 38
7 8 7 6 5 9 15 11 3 5 8 11 14 19 23 20 16 15 17 21 21 15 13 14 16 20 19 11 10 12 10 11 13 11 11 12 10 9 10 10 11 11 11 11 10 10 10 10 12 18 23 26 28 29 30 31 31 30 30 30 31 32 33 34 33 33 32 33 33 34 34 34 35 34 34 35 36 37 37 38 38 39 39 39 38 38
9 10 8 6 5 7 8 4 3 8 11 9 6 6 11 16 19 21 22 22 18 15 16 18 20 23 22 17 14 13 12 11 9 10 12 10 8 8 8 10 12 11 11 10 10 10 9 9 12 17 22 24 25 26 27 29 29 27 27 29 31 32 33 33 32 31 31 32 33 33 33 34 34 34 34 35 36 37 37 37 37 37 38 38 39 39
9 9 7 6 6 4 4 6 9 7 3 4 5 2 3 7 12 16 17 19 19 18 18 21 25 27 24 20 16 12 8 5 6 10 12 8 7 8 10 12 12 11 11 11 10 10 11 14 18 21 22 23 25 27 28 29 29 28 28 29 30 31 32 31 31 31 31 32 33 33 34 34 35 35 35 35 36 36 36 37 37 37 37 37 38 38
10 8 5 6 6 6 7 9 9 6 5 7 9 6 5 7 10 12 13 16 18 19 20 22 25 25 22 21 19 10 1 3 9 13 9 9 11 13 13 12 9 9 10 10 10 12 15 18 20 20 21 22 25 27 28 28 29 28 27 28 29 30 30 30 31 31 31 31 31 32 33 34 34 34 34 34 35 35 35 36 36 36 36 37 37 38
10 9 8 7 5 6 8 9 7 6 9 14 12 5 6 8 10 11 10 12 14 17 20 21 21 21 19 19 17 6 4 2 13 14 7 11 13 12 10 9 7 7 8 9 9 10 12 14 15 16 19 22 23 25 26 27 28 28 27 27 29 29 29 30 31 31 31 31 31 32 32 33 33 32 32 33 34 34 34 34 35 35 37 38 39 40
13 10 9 8 5 5 7 8 8 7 8 12 10 4 6 9 9 8 5 11 14 13 13 13 15 17 18 20 15 6 5 7 15 12 6 9 9 8 8 8 4 2 4 7 9 10 11 13 15 16 19 21 22 23 25 27 29 28 27 27 28 29 29 30 30 30 31 31 31 31 31 31 32 32 32 33 33 34 34 34 35 36 37 39 39 40
12 8 8 9 8 8 9 8 6 5 7 8 6 4 5 9 13 10 4 10 9 6 8 12 15 18 20 19 11 7 8 12 13 8 3 6 5 3 5 5 3 3 3 5 8 10 13 16 17 18 19 21 22 24 26 28 29 28 26 26 27 28 28 28 28 28 29 28 29 30 31 32 32 33 33 33 34 34 34 35 35 35 35 37 37 36
7 7 7 9 10 11 12 10 5 3 6 6 5 6 7 10 10 6 9 8 5 6 9 14 18 19 19 14 8 8 11 11 6 1 2 5 5 4 3 3 4 5 6 9 11 13 16 17 17 18 19 20 22 24 26 28 27 25 24 24 25 25 24 25 26 27 27 28 29 30 31 32 32 33 33 33 33 33 33 33 33 33 34 35 35 34
5 5 5 8 9 9 10 9 6 6 6 4 6 5 6 7 5 8 7 2 5 8 9 11 14 15 13 10 9 9 7 2 2 3 4 4 5 5 4 4 6 6 7 9 12 15 17 16 15 16 16 17 21 24 26 27 25 22 22 22 22 23 23 23 24 25 26 27 28 29 30 30 31 31 31 31 31 30 31 31 31 32 32 32 32 32
7 5 4 6 7 5 6 7 6 7 4 9 12 4 3 6 7 6 3 1 4 7 8 9 10 9 7 8 8 7 3 3 3 4 4 4 4 5 4 4 6 6 7 9 11 14 17 17 15 16 16 17 21 23 25 26 23 21 21 21 21 21 21 21 23 24 25 26 27 27 28 29 29 29 29 29 29 29 29 29 29 29 30 30 30 31
6 6 5 5 6 5 6 7 6 3 5 11 13 8 10 10 5 4 5 5 4 4 6 7 7 7 7 7 7 5 5 4 4 5 5 5 5 5 5 5 6 6 8 10 12 15 18 19 17 17 16 18 20 21 23 24 22 21 20 19 19 19 19 20 21 22 23 24 24 25 25 26 26 26 27 27 27 27 27 27 27 28 28 29 29 30
7 7 4 4 6 6 5 6 4 3 6 10 8 6 10 10 4 4 5 4 4 5 5 5 6 6 6 6 7 6 5 5 6 6 6 6 6 6 6 5 6 8 10 12 13 15 19 21 21 20 18 16 18 20 21 21 20 20 19 17 17 17 18 19 19 20 20 21 22 22 22 23 23 23 24 25 26 26 27 27 27 27 27 28 29 29
5 4 2 1 3 4 4 3 3 2 5 10 8 4 4 6 4 5 5 3 4 5 5 4 6 7 7 7 8 6 6 7 8 6 6 7 6 6 6 6 7 9 12 14 15 17 20 22 22 22 20 16 16 18 18 17 15 16 17 16 14 15 16 17 18 18 19 19 19 20 20 20 21 22 23 23 24 25 26 27 27 27 28 28 29 29
3 4 5 3 4 6 6 6 7 7 7 10 10 7 4 5 4 4 4 4 4 5 5 5 5 7 8 8 8 8 7 8 9 7 6 6 6 6 6 6 7 8 11 13 15 18 21 22 20 19 19 17 15 15 16 13 10 10 12 13 12 13 14 15 16 17 18 18 18 19 19 20 21 22 23 23 24 25 25 26 26 27 27 28 29 29
3 6 6 5 6 6 6 6 5 5 5 6 8 7 5 5 4 4 3 2 3 3 3 3 4 6 7 7 8 9 9 8 9 9 7 6 6 6 6 6 7 8 11 13 15 17 20 20 18 17 18 17 15 14 14 13 11 11 12 13 13 14 15 15 16 17 17 17 18 18 19 20 20 21 23 24 24 25 25 26 26 27 28 29 29 29
3 5 5 5 5 4 5 5 2 2 5 7 8 8 6 5 6 5 3 3 4 4 4 4 3 4 6 7 8 10 10 8 7 9 9 7 6 6 6 6 8 10 12 13 14 15 18 19 19 18 18 17 16 15 15 14 13 13 14 14 14 15 16 16 16 16 16 17 17 18 18 19 20 20 21 22 23 24 24 24 25 26 27 27 27 27
4 5 4 4 4 6 10 10 7 4 6 8 9 11 10 7 7 6 5 5 6 7 7 7 4 2 3 6 7 10 11 9 7 8 9 8 7 7 7 8 10 11 12 14 14 14 16 19 20 20 20 18 18 17 17 16 15 14 14 14 14 14 15 16 17 16 16 17 17 17 18 18 19 19 19 20 21 22 22 22 22 23 24 24 24 25
5 7 7 7 8 10 12 11 9 7 9 7 7 11 11 8 8 9 8 8 9 8 9 10 8 6 4 4 5 7 10 10 9 9 8 7 7 9 11 12 13 13 14 16 17 17 18 19 20 21 21 19 18 18 17 16 15 14 13 13 12 12 13 15 16 16 16 15 15 15 16 16 17 17 17 18 18 19 20 20 20 21 22 23 23 24
Wind_Direction
91 113 171 218 217 204 201 195 179 154 126 121 130 135 188 209 265 251 247 283 237 167 250 234 234 258 261 266 270 250 158 218 249 254 256 251 241 235 233 237 233 233 237 215 207 209 206 204 202 205 202 199 203 205 207 205 200 196 193 191 186 184 183 180 176 175 175 173 166 159 159 163 163 164 165 166 168 166 168 176 176 171 166 167 168 168
76 143 224 231 214 197 196 174 132 112 99 93 130 175 250 214 251 253 230 297 300 176 265 271 250 262 261 263 271 264 187 231 237 238 248 246 241 236 234 239 234 231 224 184 199 202 200 201 198 200 201 201 205 203 204 203 198 196 195 193 189 188 187 183 182 182 179 176 172 167 166 167 163 161 162 164 167 167 171 175 173 169 166 171 172 167
62 221 241 234 155 116 105 127 130 122 112 95 118 155 259 246 273 281 282 329 357 185 269 309 276 265 265 263 265 255 239 241 236 232 243 245 244 241 235 239 234 224 212 191 196 196 197 198 194 197 200 203 205 201 201 202 198 195 193 193 191 190 191 186 182 180 176 176 178 177 173 170 166 163 163 166 169 172 175 176 173 171 173 176 172 165
177 248 249 203 132 123 89 103 122 115 134 156 146 164 237 247 274 281 294 327 215 194 278 300 286 272 267 266 258 249 245 255 255 246 249 247 243 245 241 235 227 222 216 202 199 195 196 197 194 195 198 200 201 200 199 198 196 194 192 193 190 187 189 187 182 179 179 180 180 176 171 169 166 163 165 166 168 172 176 176 174 172 172 172 168 163
220 247 247 124 145 155 124 116 137 146 236 236 196 195 215 223 218 232 288 326 323 354 8 326 301 278 259 262 259 267 294 280 262 256 260 253 241 246 254 245 227 220 213 203 199 194 193 196 195 194 195 197 199 200 199 196 194 192 191 192 189 185 187 188 185 183 184 182 177 169 162 158 156 155 160 162 162 167 172 173 171 169 168 168 165 162
249 239 116 107 146 149 135 162 175 168 207 275 231 204 212 219 225 244 355 10 351 332 342 19 309 282 284 270 260 286 323 277 257 252 255 257 251 243 248 247 232 222 215 204 198 193 193 195 194 193 193 195 199 201 199 196 195 193 192 192 190 188 188 190 191 189 188 185 180 172 164 157 152 151 157 163 164 166 169 170 168 167 166 166 164 160
243 216 119 126 148 155 159 204 216 176 156 272 251 204 209 207 212 242 118 62 292 265 291 54 241 277 305 281 264 266 268 264 263 260 258 262 261 242 239 245 233 220 214 205 198 191 190 191 190 192 195 196 198 199 197 196 196 194 194 194 192 192 192 194 196 194 189 184 181 178 175 171 165 161 162 166 167 166 169 169 168 166 165 164 162 159
173 170 134 132 126 147 179 221 218 171 146 238 251 165 171 176 196 207 161 181 235 268 304 43 142 273 286 271 276 277 258 272 275 268 265 260 259 254 245 243 232 220 207 198 197 190 189 191 191 194 195 196 197 195 195 195 194 194 195 195 194 194 195 197 198 196 192 186 181 177 174 172 171 171 169 168 167 165 167 168 166 164 163 161 160 159
147 176 190 170 148 177 201 220 189 160 157 245 205 122 134 151 166 141 130 179 331 351 294 241 136 262 270 262 301 323 255 271 274 265 263 258 257 259 253 247 236 222 205 195 195 191 192 194 196 196 194 193 194 193 194 195 193 194 195 195 195 195 196 196 196 195 192 188 182 177 173 168 168 172 169 168 168 166 165 165 163 162 161 160 160 159
107 197 198 166 167 202 207 262 183 165 181 203 128 96 80 80 81 85 113 128 59 320 252 206 154 224 272 240 212 286 249 248 259 264 265 263 262 257 257 261 245 214 200 198 196 194 196 197 197 195 190 190 192 193 195 196 193 193 195 195 194 196 197 195 195 194 190 186 182 178 176 171 169 169 166 166 167 166 164 163 161 161 162 162 161 159
323 279 209 165 179 185 133 61 140 153 149 139 109 72 53 40 42 54 56 86 79 275 255 205 179 189 269 258 195 227 229 214 233 260 271 282 291 270 261 267 243 207 197 197 193 190 190 193 193 190 189 189 191 192 194 195 194 193 194 195 195 197 198 195 194 193 189 185 184 183 181 180 177 172 169 166 166 166 166 164 163 163 164 163 162 160
333 326 249 230 171 126 98 68 25 50 103 108 91 82 73 355 9 24 355 50 152 256 280 258 181 178 235 256 235 251 256 233 226 246 263 276 285 277 271 268 241 204 193 186 182 179 173 178 185 187 189 188 188 190 192 193 194 193 194 194 194 196 197 196 193 191 189 187 187 187 186 187 186 181 176 172 170 170 169 167 166 165 165 164 164 163
293 232 251 302 212 139 115 84 34 15 36 83 102 108 100 333 349 345 299 140 221 254 274 323 122 200 239 251 256 260 260 248 233 235 247 254 262 266 273 268 238 200 189 182 180 181 176 178 183 186 187 187 187 189 191 192 192 193 194 194 194 194 196 196 193 190 190 191 192 191 190 190 191 187 183 180 176 174 173 171 169 168 168 167 166 166
277 288 271 182 260 183 155 157 160 192 184 155 149 141 137 148 187 260 267 270 266 269 271 248 213 251 265 259 243 244 248 246 241 241 235 236 248 256 268 266 233 209 197 192 190 187 189 190 187 188 188 187 188 190 190 192 192 192 193 194 194 195 195 195 195 193 193 194 193 192 193 194 192 189 186 185 181 178 176 175 174 172 171 170 169 168
219 277 217 178 209 186 181 191 165 138 161 186 158 139 162 167 170 216 226 226 258 283 294 282 231 202 212 250 236 236 257 271 260 255 248 250 251 248 266 268 236 221 208 201 204 199 199 194 189 190 190 189 190 190 190 191 193 193 194 195 195 195 195 195 196 196 195 195 194 193 195 197 196 192 189 187 184 180 179 178 176 175 174 173 171 169
201 258 246 225 224 170 181 198 119 111 147 216 123 119 196 193 164 197 210 181 191 306 297 246 226 216 210 269 268 244 268 283 266 271 279 268 264 262 269 258 229 219 213 207 211 207 202 195 193 193 192 192 191 190 191 192 193 194 194 196 197 198 198 196 196 197 196 195 195 196 198 198 196 192 189 187 184 182 182 180 179 177 176 175 173 171
181 268 286 341 352 172 184 191 124 138 183 163 140 182 218 177 138 137 259 72 71 281 271 209 242 288 313 281 272 248 258 268 269 282 268 257 274 308 280 255 216 209 214 214 214 208 201 195 195 196 194 193 192 191 193 194 195 196 196 195 196 198 198 197 196 197 197 197 197 198 200 199 196 193 191 188 185 184 183 182 181 180 179 177 176 174
166 253 298 75 186 269 279 122 74 26 132 131 182 205 176 96 105 116 219 351 40 251 271 250 246 283 299 274 292 262 251 256 255 255 249 259 284 287 269 253 196 209 218 219 217 208 204 198 196 196 196 197 196 194 194 195 197 198 198 197 196 196 197 196 196 196 198 200 200 199 199 199 198 196 194 190 187 185 184 184 183 182 181 180 179 177
157 224 301 53 188 293 5 106 83 354 73 134 187 185 126 140 203 123 159 208 204 243 278 290 277 264 214 231 254 209 228 238 243 242 243 260 262 252 262 255 190 217 224 218 215 205 200 197 195 195 197 198 199 198 197 196 197 197 199 199 198 199 199 199 199 198 199 202 202 202 201 200 199 197 194 191 189 187 186 186 186 185 184 182 181 180
135 198 269 342 252 317 24 149 189 215 41 68 119 143 120 164 181 167 160 169 181 227 269 308 314 269 215 202 199 215 225 218 226 239 231 243 245 243 255 243 206 219 221 213 210 205 197 195 196 196 197 198 198 199 198 196 197 197 198 199 200 201 201 200 201 200 201 202 202 202 201 200 200 198 195 193 190 189 189 189 189 187 186 185 184 183
111 203 233 328 338 149 186 219 196 180 162 149 166 178 192 157 108 168 179 130 143 166 206 297 298 270 237 185 190 213 225 207 201 218 228 237 241 234 229 224 217 215 218 217 206 202 197 192 195 197 198 199 198 199 199 197 198 197 198 199 199 200 200 199 200 201 202 202 201 201 200 200 200 199 197 195 193 192 192 192 191 189 188 187 186 185
177 194 185 162 225 200 216 241 206 194 186 181 186 192 193 177 148 181 233 221 121 145 182 177 274 270 247 180 197 207 216 212 198 201 226 242 238 229 230 226 217 208 212 213 203 198 193 187 190 193 195 197 197 198 199 198 198 198 198 199 199 200 201 200 200 201 202 201 201 202 202 201 201 200 198 196 195 194 194 193 192 191 190 190 189 188
160 125 161 190 215 217 235 274 205 218 223 209 209 203 193 182 166 172 201 215 158 212 189 113 269 272 251 175 210 210 207 233 218 198 220 248 250 248 254 238 219 216 215 206 198 192 188 186 187 189 193 195 197 199 199 199 199 199 199 199 199 200 202 203 203 203 202 202 202 202 202 202 201 200 199 198 197 196 195 194 193 193 193 192 191 191
112 115 190 230 295 315 312 336 8 121 161 231 242 190 169 193 184 162 177 181 164 197 180 104 253 267 282 121 240 250 245 262 260 224 227 252 268 259 245 226 215 218 207 188 188 185 183 184 184 187 191 195 198 199 200 200 200 200 200 199 200 201 203 204 204 203 202 201 201 202 202 202 201 201 200 199 199 198 196 195 194 195 195 195 194 193
173 184 196 210 248 308 313 310 295 236 165 217 232 191 189 195 172 125 133 133 181 212 185 164 242 251 280 347 304 294 292 273 253 238 234 247 261 261 246 218 207 204 187 180 184 180 182 185 188 191 192 195 198 199 200 201 201 200 201 200 200 202 203 205 204 202 201 201 200 201 201 201 201 201 200 200 200 199 197 196 197 197 197 197 197 196
177 186 189 196 215 228 230 232 227 194 154 219 219 191 200 193 176 182 189 160 225 224 181 185 242 246 277 348 294 279 287 271 253 239 235 244 249 255 250 224 200 186 187 191 188 188 192 194 198 198 196 196 198 199 200 202 202 201 201 202 201 201 202 204 203 202 201 200 200 200 200 201 201 201 201 201 200 200 199 199 199 199 200 200 199 199
151 188 195 196 207 220 232 237 178 131 143 203 210 188 194 200 191 194 201 202 219 220 182 216 236 249 259 251 250 261 255 249 253 246 240 250 250 247 244 233 213 198 197 193 188 193 199 201 205 203 200 199 200 201 201 202 202 202 201 202 202 201 202 202 202 200 200 200 199 200 200 201 201 201 201 201 202 202 202 201 202 202 202 202 202 202
120 209 207 207 211 220 234 234 177 144 172 199 202 193 194 199 193 194 212 221 214 196 236 234 226 244 258 244 222 242 244 243 256 252 241 243 244 241 231 216 218 219 207 196 197 201 203 205 207 204 204 203 201 202 203 203 204 204 203 202 201 200 201 201 200 199 198 199 199 200 201 201 201 202 202 203 204 204 204 204 204 205 204 204 204 205
160 218 208 213 220 225 236 231 184 175 197 196 197 197 195 194 191 198 216 224 216 201 236 244 224 226 251 251 226 220 222 224 238 237 227 228 235 232 207 197 218 220 210 209 210 208 206 207 205 201 203 204 201 202 203 203 204 205 204 204 201 200 200 199 198 197 197 198 199 201 201 200 201 202 203 205 206 206 207 206 206 206 206 206 207 208
182 212 201 209 222 229 238 234 193 191 211 206 202 201 195 193 196 203 215 222 221 217 235 251 249 240 249 250 229 212 206 212 228 227 213 230 241 234 212 213 227 223 216 220 220 215 211 209 205 200 200 202 202 202 202 203 203 203 204 204 202 200 199 198 197 197 197 198 200 201 201 200 201 202 203 205 206 207 207 207 207 207 207 208 209 209
194 216 205 196 219 234 242 243 216 198 211 218 215 208 203 203 204 210 218 220 222 227 237 247 255 257 255 243 219 214 200 207 235 244 238 242 243 237 227 225 230 229 227 229 227 220 213 208 204 199 199 203 204 203 202 203 202 201 203 204 202 200 199 197 197 197 198 200 200 201 200 200 201 202 203 205 206 206 206 207 207 207 208 209 210 211
185 228 218 165 224 237 241 246 234 198 213 236 233 216 212 211 210 212 216 216 212 218 231 240 247 255 254 213 170 210 194 197 229 237 238 243 235 229 230 227 228 231 231 232 229 219 210 206 204 202 203 205 204 203 203 202 199 199 201 203 202 200 198 198 198 199 200 200 200 200 201 201 201 201 203 204 204 205 206 206 206 206 208 209 211 212
172 202 207 196 225 240 244 246 228 161 195 242 232 222 218 215 213 212 217 221 217 211 218 227 233 247 251 208 177 225 201 203 225 227 232 242 235 225 227 227 229 231 231 233 229 218 211 209 206 204 205 204 203 204 203 199 197 199 200 199 199 198 198 199 200 201 201 200 200 200 201 201 201 201 202 202 203 205 206 206 206 207 208 210 211 213
178 195 211 211 218 240 245 244 184 164 218 233 230 226 223 215 206 208 219 223 220 213 222 233 240 251 256 242 230 235 220 216 228 228 233 241 238 231 229 229 232 234 235 237 232 220 214 210 207 207 207 207 206 204 202 199 199 200 198 196 196 196 197 198 200 201 200 200 200 200 199 200 200 200 200 201 203 204 205 206 206 207 208 210 211 213
189 199 209 215 220 240 244 230 187 215 227 239 251 233 221 215 207 211 225 229 222 215 227 241 248 252 253 249 242 239 234 232 239 245 244 241 235 234 235 234 231 231 236 239 233 225 214 201 202 205 207 207 203 199 198 198 198 196 194 194 194 195 196 197 198 199 200 199 199 199 198 199 199 199 200 202 203 203 204 205 206 207 209 210 212 214
195 203 207 213 216 221 219 210 223 237 262 289 285 252 197 211 205 211 232 239 228 218 219 230 240 245 249 253 250 240 234 253 276 258 242 229 227 228 230 235 231 223 230 233 227 220 208 201 203 204 202 200 196 194 194 194 193 191 191 192 193 194 195 195 196 199 200 200 199 198 199 198 198 199 200 200 201 201 203 205 207 209 210 212 214 216
197 200 203 214 211 210 220 225 237 277 309 270 250 225 188 191 187 194 226 242 233 221 217 224 234 241 246 252 253 244 157 354 290 265 224 196 218 225 225 235 230 217 228 234 229 226 218 211 208 203 196 191 190 191 191 189 188 186 185 187 190 191 192 193 196 199 199 200 199 199 199 199 198 198 198 198 200 201 203 205 207 209 212 214 216 218
201 197 193 205 206 205 224 235 238 249 251 243 239 215 161 179 183 179 208 244 243 227 219 221 231 239 244 251 252 231 108 279 271 265 210 186 213 221 223 239 237 222 232 231 222 222 214 204 199 192 188 185 185 188 187 184 184 182 181 185 187 188 190 194 197 199 198 200 201 200 200 200 199 198 197 199 201 203 205 208 210 213 216 218 219 221
206 205 197 203 207 198 215 234 230 224 240 244 239 208 153 160 145 130 180 247 249 231 209 205 224 236 241 245 240 189 139 233 258 263 211 185 206 211 207 223 230 225 238 221 203 196 186 181 179 177 178 178 178 183 184 182 181 180 181 184 184 186 191 195 198 199 199 200 201 200 200 201 201 201 201 203 206 208 211 214 216 217 219 220 221 223
205 208 204 208 215 211 215 231 234 231 248 245 228 205 170 138 114 112 199 246 241 202 161 171 205 227 234 236 226 173 186 227 248 266 207 163 168 169 184 191 161 141 163 175 183 182 172 167 164 164 170 174 175 179 181 179 179 179 181 183 184 189 194 197 198 200 200 201 200 201 202 203 204 205 207 209 211 213 215 216 217 217 219 220 222 223
202 204 204 211 220 220 222 233 246 247 247 234 195 174 152 120 113 164 222 230 187 165 168 176 196 220 229 224 204 195 215 227 236 308 70 116 120 97 81 100 124 136 143 148 158 161 156 158 161 162 168 173 174 175 177 176 176 178 181 182 185 192 196 198 199 199 200 201 201 202 204 205 207 209 211 213 214 215 216 217 218 219 220 222 222 222
192 197 204 210 216 222 228 234 243 251 237 170 134 151 153 143 180 214 223 208 158 173 188 192 200 216 221 209 200 207 220 223 111 103 86 97 117 112 94 97 104 107 122 135 144 147 144 143 146 149 156 166 170 172 175 174 173 175 178 181 189 195 197 197 198 198 199 200 201 203 205 207 210 212 213 214 215 215 217 219 220 221 221 222 222 222
180 181 200 204 203 217 230 223 227 252 226 129 116 116 223 210 209 200 173 177 190 178 183 202 214 213 200 202 211 202 151 96 112 124 104 100 117 121 121 124 118 115 120 122 130 141 138 130 128 134 144 158 166 171 174 173 171 172 177 183 191 195 194 195 197 197 198 200 201 204 207 209 211 213 214 215 216 217 218 219 218 220 221 222 223 223
180 180 196 201 193 196 217 220 215 215 177 152 145 171 213 211 193 158 165 184 207 193 180 199 219 213 194 195 195 170 142 141 153 142 130 132 137 135 132 129 124 123 121 119 128 139 135 127 123 126 134 149 161 168 173 174 170 169 175 183 188 190 191 193 195 195 196 199 201 205 208 210 212 214 214 216 217 216 217 218 217 219 220 222 223 224
203 193 187 196 202 201 212 223 212 168 182 191 187 195 211 210 184 144 165 180 205 203 183 189 209 207 193 176 161 159 171 171 166 160 151 147 148 145 141 134 131 130 124 120 126 135 134 129 126 125 127 141 155 163 170 175 173 169 173 178 183 186 187 188 189 191 194 197 201 204 206 208 211 213 215 217 217 216 216 217 216 217 219 221 222 224
218 195 169 174 210 228 248 231 208 211 216 215 216 214 215 219 198 160 166 196 214 196 179 185 191 180 172 164 157 168 184 166 157 157 149 146 148 143 134 125 122 126 125 121 124 131 131 127 125 124 123 130 146 157 165 173 175 170 170 173 177 181 182 182 184 187 191 195 199 201 204 205 207 211 214 216 218 219 219 219 218 217 219 220 222 224
246 188 181 190 190 202 226 218 206 216 218 212 214 216 223 243 229 177 181 212 209 187 186 195 180 160 164 170 163 164 170 159 153 153 150 147 148 144 139 133 124 123 125 125 128 130 128 123 121 121 120 123 136 149 155 159 160 158 161 165 167 170 175 179 182 185 188 193 196 198 202 204 205 208 211 213 215 217 219 220 221 220 220 221 222 223
216 180 176 198 200 198 220 229 225 246 254 237 230 226 221 229 220 196 197 202 173 166 171 171 157 152 165 177 165 154 158 163 158 153 153 154 151 146 144 138 126 116 116 122 126 127 125 122 122 123 123 125 133 143 147 145 140 141 151 158 159 162 168 173 177 182 185 188 193 196 200 203 205 206 208 210 213 214 216 218 220 221 224 227 227 227
142 156 172 205 216 229 251 245 222 312 286 260 243 236 230 217 202 195 184 149 148 151 141 142 165 172 172 176 164 148 152 172 173 155 150 153 153 149 144 134 127 122 121 126 130 131 130 130 131 131 131 134 140 146 147 143 138 137 145 152 155 159 164 167 172 178 181 185 191 194 197 201 204 206 208 210 212 215 218 221 225 228 232 236 237 238
139 166 183 198 205 229 240 224 187 186 242 237 219 218 221 207 186 181 171 161 169 173 161 152 144 128 156 173 170 156 154 164 172 158 151 154 158 155 149 139 131 127 129 132 134 135 136 137 138 137 137 140 147 150 148 145 141 137 140 147 153 159 163 165 169 175 179 184 189 191 194 198 201 205 208 211 212 214 217 222 228 233 237 240 242 244
200 189 185 194 210 228 233 216 183 195 234 235 202 199 201 184 174 184 188 184 182 179 170 160 148 143 164 183 183 170 160 158 162 158 151 152 156 151 149 148 143 140 141 140 135 132 132 135 138 140 140 144 150 150 147 144 140 137 139 144 150 158 164 166 169 171 176 182 187 190 194 198 200 204 208 212 215 217 218 221 227 232 237 241 243 246